Location: Suburban Lights Observatory
(43.1572°N, 89.2764°W)
Time: 13:06:04
(UTC-05:00)

Daily predictions for brighter satellites

Satellite Brightness Start Highest point End
(mag) Time Altitude Azimuth Time Altitude Azimuth Time Altitude Azimuth
BREEZE-M DEB (TANK) 3.8 19:10:57 10° WNW 19:14:02 43° N 19:22:53 10° ENE
Cosmos 1726 Rocket 3.5 19:10:22 10° S 19:14:43 85° E 19:19:04 10° N
SL-27 R/B 4.3 19:13:44 10° SE 19:15:27 13° E 19:17:11 10° ENE
Cosmos 389 Rocket 3.4 19:13:23 10° SSW 19:16:49 54° WNW 19:20:14 10° N
Cosmos 1763 Rocket 3.5 19:12:44 10° SSW 19:17:51 88° WNW 19:23:04 10° NNE
BREEZE M DEB (TANK) 3.6 19:10:14 10° WSW 19:20:06 58° NNW 19:23:14 10° ENE
Cosmos 304 Rocket 3.7 19:15:32 10° S 19:20:16 68° ESE 19:25:04 10° NNE
Cosmos 1707 2.8 19:16:37 10° N 19:20:33 85° W 19:24:29 10° S
SJ 16-02 2.6 19:17:19 10° N 19:20:51 23° ENE 19:24:21 10° ESE
COSMOS 2406 3.5 19:16:18 10° S 19:21:45 48° ESE 19:27:15 10° NE
Cosmos 1356 Rocket 3.6 19:19:58 10° N 19:24:15 57° ENE 19:28:29 10° SSE
USA 267 4.4 19:20:05 10° NE 19:26:02 38° NNW 19:31:58 10° W
Meteor 1-22 Rocket 4.4 19:20:59 10° SSE 19:26:23 47° E 19:31:36 10° NNE
Cosmos 1766 3.7 19:25:07 10° SSE 19:28:46 39° E 19:32:25 10° NNE
Meteor 2-5 Rocket 3.9 19:24:34 10° N 19:30:27 88° W 19:36:10 10° S
Cosmos 2181 Rocket 4.3 19:24:27 10° N 19:30:38 75° W 19:36:43 10° S
Cosmos 2228 3.0 19:28:50 10° S 19:33:12 89° E 19:37:32 10° N
ISS -3.0 19:35:29 10° SSW 19:38:26 32° SE 19:40:34 16° E
ALOS 2.5 19:35:43 10° S 19:40:23 76° WSW 19:45:05 10° NNW
FengYun 1-2 T 4.3 19:34:53 10° SSE 19:40:24 64° ENE 19:45:54 10° N
Cosmos 2074 Rocket 3.9 19:34:47 10° S 19:40:56 69° E 19:47:06 10° NNE
Cosmos 2154 Rocket 4.5 19:35:55 10° SSE 19:41:30 36° E 19:47:09 10° NNE
BREEZE-M DEB (TANK) 4.1 19:29:56 10° SW 19:44:36 58° SSE 19:48:25 15° E
Elektron 1 4.2 19:47:44 10° NNW 19:51:06 46° NE 19:52:33 23° ESE
Cosmos 1758 4.0 19:50:35 10° SSE 19:54:08 31° E 19:57:40 10° NNE
Spot 2 Rocket 4.2 19:50:59 15° SE 19:54:35 33° ENE 19:59:04 10° N
Meteor 2-8 Rocket 4.4 19:49:06 10° N 19:55:13 68° E 20:01:16 10° SSE
Cosmos 1812 Rocket 3.7 19:51:37 10° SSE 19:55:55 50° E 20:00:15 10° NNE
FREGAT/IRIS 3.0 19:54:14 10° S 19:57:13 64° W 20:00:14 10° NNW
Cosmos 1805 3.3 19:55:13 10° S 19:58:59 52° E 20:02:48 10° NNE
Cosmos 836 Rocket 4.5 19:55:05 10° SSW 20:00:22 88° ESE 20:05:40 10° NNE
Thor Agena Rocket 3.8 19:55:56 10° N 20:01:11 73° WNW 20:06:19 10° SSW
GP-B 3.4 19:59:32 10° NNE 20:03:47 43° E 20:08:01 10° SSE
Cosmos 2278 4.4 19:59:28 10° N 20:04:37 34° NE 20:07:09 23° E
Resurs 01 Rocket 2.0 20:01:55 18° SE 20:04:52 43° ENE 20:09:03 10° N
ATLAS CENTAUR R/B 4.1 19:51:28 10° NW 20:05:27 58° WSW 20:10:14 10° SSE
CZ-2D R/B 3.3 20:04:04 17° SSE 20:06:47 54° ENE 20:10:31 10° N
Meteor 2-19 Rocket 4.3 20:02:44 10° S 20:08:43 67° E 20:14:44 10° NNE
Nadezhda 3 Rocket 4.0 20:03:32 10° N 20:09:47 61° E 20:15:56 10° SSE
Cosmos 1939 Rocket 4.0 20:12:33 25° ENE 20:12:33 25° ENE 20:15:35 10° NNE
Cosmos 783 Rocket 4.4 20:09:04 10° S 20:14:09 60° ESE 20:19:17 10° NNE
Cosmos 1656 4.5 20:09:09 10° N 20:14:17 33° NE 20:16:08 27° E
Cosmos 372 Rocket 4.1 20:10:25 10° NNW 20:15:42 80° WSW 20:20:57 10° SSE
Cosmos 1900 4.3 20:13:22 10° SSW 20:18:27 78° ESE 20:23:37 10° NE
Cosmos 1470 4.3 20:21:41 21° NE 20:21:41 21° NE 20:23:26 10° NNE
Cosmos 1125 Rocket 3.9 20:15:35 10° NNW 20:20:50 64° WSW 20:26:05 10° S
Cosmos 1697 Rocket 3.7 20:16:58 10° N 20:21:48 28° NE 20:22:57 26° ENE
Cosmos 1356 3.5 20:19:13 10° NNW 20:22:43 75° W 20:25:00 20° S
Cosmos 2285 Rocket 4.3 20:17:27 10° S 20:23:24 42° E 20:29:24 10° NNE
Cosmos 1980 Rocket 3.7 20:19:59 10° N 20:23:56 19° NE 20:24:38 18° ENE
USA 186 3.9 20:27:31 11° N 20:27:31 11° N 20:27:41 10° N
Envisat 3.0 20:24:15 26° SE 20:27:01 61° ENE 20:32:02 10° N
Okean 3 Rocket 3.7 20:24:01 10° N 20:28:23 52° ENE 20:29:16 44° ESE
YAOGAN 6 4.4 20:33:50 20° NNE 20:33:50 20° NNE 20:35:23 10° N
ATLAS 2AS CENTAUR R/B 3.2 20:29:34 10° NNW 20:37:29 55° NE 20:40:36 35° ESE
SL-8 Rocket 4.1 20:38:36 34° SE 20:40:46 47° E 20:46:38 10° NNE
Cosmos 1953 2.4 20:40:36 10° S 20:44:39 79° W 20:48:44 10° N
BREEZE M DEB (TANK) 4.1 20:42:11 10° WNW 20:47:00 29° SW 20:47:44 26° SSW
SL-27 R/B 3.9 20:46:50 10° SW 20:50:15 40° WNW 20:53:45 10° N
SL-16 R/B 4.3 20:50:48 10° NNE 20:53:07 13° NE 20:53:07 13° NE
Cosmos 292 Rocket 4.2 20:50:01 10° SSW 20:54:50 64° WNW 20:59:41 10° NNE
H-2A R/B 4.1 20:57:09 14° NE 20:57:09 14° NE 20:58:26 10° NNE
Cosmos 1076 Rocket 3.4 20:51:00 10° N 20:55:13 81° NNE 20:55:13 81° NNE
NOSS 3-3 (A) 4.4 20:51:32 10° S 21:05:31 - NE 20:55:46 40° SSE
SJ 16-02 2.8 20:55:32 10° NW 20:59:31 34° WSW 21:02:00 19° SSW
Cosmos 1674 3.6 20:56:39 10° NNW 21:00:14 45° W 21:00:40 43° WSW
ISS -1.3 21:11:47 10° W 21:13:15 22° W 21:13:15 22° W
Cosmos 2369 3.8 21:09:33 10° NNW 21:15:11 70° WSW 21:16:07 58° SSW
Cosmos 1538 Rocket 4.3 21:13:07 10° SSW 21:19:25 59° N 21:23:41 10° NNE
Milstar 3 Cent rocket 4.2 21:18:30 10° SW 21:19:07 12° SSW 21:19:07 12° SSW
Centaur D AC-29 4.0 21:22:43 10° SW 21:24:06 11° SSW 21:24:06 11° SSW
FALCON 9 R/B 3.8 21:34:15 10° WSW 21:36:10 24° SW 21:36:10 24° SW
Resurs 01 Rocket 4.1 21:39:31 14° SW 21:41:33 18° W 21:44:37 10° NW
Cosmos 2082 Rocket 3.9 21:45:39 23° NNE 21:45:39 23° NNE 21:47:46 10° NNE
ERS-1 Rocket 4.4 21:52:21 33° NNW 21:52:21 33° NNW 21:55:05 10° NNW
Cosmos 2366 rocket 4.4 21:59:05 59° WNW 21:59:05 59° WNW 22:05:17 10° N
Cosmos 2322 Rocket 4.0 21:54:16 10° N 21:56:45 23° N 21:56:45 23° N
Cosmos 1697 Rocket 3.8 22:00:34 10° NW 22:04:42 41° WNW 22:04:42 41° WNW
Cosmos 2360 Rocket 4.5 22:02:42 10° N 22:04:07 14° NNE 22:04:07 14° NNE
Cosmos 1980 Rocket 3.4 22:02:56 10° NNW 22:06:24 39° NNW 22:06:24 39° NNW
ATLAS 2AS CENTAUR R/B 3.8 22:21:05 10° NW 22:28:02 39° WSW 22:28:02 39° WSW
H-2A R/B 4.4 22:37:48 19° NNW 22:37:48 19° NNW 22:39:10 10° NNW
SL-16 R/B 4.2 22:32:54 10° NNW 22:34:58 23° NNW 22:34:58 23° NNW
